Weather History for Cleveland, OH

Change the Weather History Date:

Saturday, January 19, 2013

  Actual Average Record
Temperature  
Mean Temperature 43 °F 28 °F  
Max Temperature 51 °F 34 °F 67 °F (1907)
Min Temperature 35 °F 22 °F -20 °F (1994)
Degree Days  
Heating Degree Days 22 37  
Month to date heating degree days 596 702  
Since 1 July heating degree days 2677 2809  
Cooling Degree Days 0 0  
Month to date cooling degree days 0 0  
Year to date cooling degree days 0 0  
Moisture  
Dew Point 24 °F    
Average Humidity 48    
Maximum Humidity 56    
Minimum Humidity 39    
Precipitation  
Precipitation 0.00 in 0.09 in 0.97 in (1986)
Month to date precipitation 0.94 1.76  
Year to date precipitation 0.94 1.76  
Snow  
Snow 0.00 in 0.60 in - ()
Month to date snowfall 0.1 11.4  
Since 1 July snowfall 15.6 30.0  
Snow Depth 0.00 in    
Sea Level Pressure  
Sea Level Pressure 29.96 in    
Wind  
Wind Speed 19 mph (SSW)    
Max Wind Speed 29 mph    
Max Gust Speed 40 mph    
Visibility 10 miles    
Events      
T = Trace of Precipitation, MM = Missing Value Source: NWS Daily Summary

Daily Weather History Graph

Daily Weather History Graph

Search for Another Location

Airport:

Trip Planner

Search our weather history database for the weather conditions in past years. The results will help you decide how hot, cold, wet, or windy it might be!

Date:

Astronomy

Jan. 19, 2013 Rise Set
Actual Time 7:49 AM EST 5:27 PM EST
Civil Twilight 7:18 AM EST 5:58 PM EST
Nautical Twilight 6:45 AM EST 6:31 PM EST
Astronomical Twilight 6:12 AM EST 7:04 PM EST
Moon 11:54 AM EST (1/19) 1:21 AM EST (1/19)
Length of Visible Light 10h 39m
Length of Day
9h 38m
First Quarter, 57% of the Moon is Illuminated
Jan 19
First Quarter
Jan 26
Full
Feb 3
Last Quarter
Feb 10
New
Feb 17
First Quarter

Hourly Weather History & Observations

Time (EST) Temp. Windchill Dew Point Humidity Pressure Visibility Wind Dir Wind Speed Gust Speed Precip Events Conditions
12:51 AM 36.0 °F 25.3 °F 19.9 °F 52% 30.11 in 10.0 mi SSW 19.6 mph 27.6 mph N/A   Partly Cloudy
1:51 AM 35.6 °F 25.2 °F 19.4 °F 52% 30.09 in 10.0 mi SSW 18.4 mph 23.0 mph N/A   Scattered Clouds
2:51 AM 36.0 °F 26.7 °F 21.0 °F 55% 30.11 in 10.0 mi SSW 15.0 mph - N/A   Clear
3:51 AM 39.0 °F 30.6 °F 19.9 °F 46% 30.09 in 10.0 mi SSW 15.0 mph 25.3 mph N/A   Clear
4:51 AM 39.9 °F 31.1 °F 19.9 °F 45% 30.08 in 10.0 mi SSW 17.3 mph - N/A   Clear
5:51 AM 39.9 °F 31.4 °F 19.9 °F 45% 30.08 in 10.0 mi SW 16.1 mph 28.8 mph N/A   Clear
6:51 AM 39.9 °F 31.1 °F 19.9 °F 45% 30.07 in 10.0 mi SW 17.3 mph 26.5 mph N/A   Clear
7:51 AM 39.9 °F 30.8 °F 21.0 °F 47% 30.08 in 10.0 mi SSW 18.4 mph 26.5 mph N/A   Partly Cloudy
8:51 AM 41.0 °F 32.2 °F 21.9 °F 47% 30.08 in 10.0 mi SSW 18.4 mph 28.8 mph N/A   Scattered Clouds
9:51 AM 44.1 °F 35.2 °F 23.0 °F 43% 30.08 in 10.0 mi SW 23.0 mph 32.2 mph N/A   Mostly Cloudy
10:51 AM 46.0 °F 38.5 °F 25.0 °F 44% 30.07 in 10.0 mi SW 19.6 mph 31.1 mph N/A   Scattered Clouds
11:51 AM 48.0 °F - 26.1 °F 42% 30.03 in 10.0 mi SW 25.3 mph 34.5 mph N/A   Mostly Cloudy
12:51 PM 48.9 °F - 27.0 °F 43% 29.98 in 10.0 mi SSW 19.6 mph 29.9 mph N/A   Partly Cloudy
1:51 PM 50.0 °F - 28.0 °F 43% 29.94 in 10.0 mi SSW 21.9 mph 29.9 mph N/A   Partly Cloudy
2:51 PM 50.0 °F - 28.0 °F 43% 29.90 in 10.0 mi SSW 18.4 mph 33.4 mph N/A   Partly Cloudy
3:51 PM 51.1 °F - 28.0 °F 41% 29.86 in 10.0 mi SSW 17.3 mph 33.4 mph N/A   Mostly Cloudy
4:51 PM 50.0 °F - 27.0 °F 41% 29.83 in 10.0 mi SSW 27.6 mph 35.7 mph N/A   Mostly Cloudy
5:51 PM 48.9 °F - 26.1 °F 41% 29.83 in 10.0 mi SSW 15.0 mph 23.0 mph N/A   Overcast
6:51 PM 48.0 °F - 25.0 °F 41% 29.83 in 10.0 mi SSW 15.0 mph 24.2 mph N/A   Overcast
7:51 PM 48.0 °F - 25.0 °F 41% 29.81 in 10.0 mi SSW 16.1 mph 25.3 mph N/A   Overcast
8:51 PM 46.4 °F 39.8 °F 26.6 °F 46% 29.78 in 10.0 mi SSW 16.1 mph 24.2 mph N/A   Clear
9:51 PM 46.9 °F - 26.1 °F 44% 29.77 in 10.0 mi SSW 19.6 mph 27.6 mph N/A   Clear
10:51 PM 48.0 °F - 27.0 °F 44% 29.74 in 10.0 mi SW 21.9 mph 38.0 mph N/A   Overcast
11:51 PM 46.9 °F - 28.9 °F 50% 29.71 in 10.0 mi SW 24.2 mph 39.1 mph N/A   Partly Cloudy